contact:dominique.lefevre@mio.osupytheas.fr, maurice.libes@osupytheas.fr, didier.mallarino@osupytheas.fr
Project:EMSO http://www.emso-fr.org/EMSO-France
Depth: 2436.0 m
Title:EMSO Ligure Ouest : Data MII capteur MICROCAT
DateTime_Computer,Latitude,Longitude,Temperature,Conductivity,Pressure,DateTime_Instrument
DateTime_Computer,Latitude,Longitude,degC,S m-1,dbar,DateTime_Instrument
2022-12-01T00:01:03Z,42.805,6.029,13.3010,4.60059,2470.6,2022-12-01T02:03:03Z
2022-12-01T00:04:06Z,42.805,6.029,13.3010,4.60060,2470.577,2022-12-01T02:06:06Z
2022-12-01T00:07:09Z,42.805,6.029,13.3015,4.60061,2470.624,2022-12-01T02:09:09Z
2022-12-01T00:10:12Z,42.805,6.029,13.3017,4.60059,2470.614,2022-12-01T02:12:12Z
2022-12-01T00:13:15Z,42.805,6.029,13.3015,4.60061,2470.6,2022-12-01T02:15:15Z
2022-12-01T00:16:18Z,42.805,6.029,13.3020,4.60061,2470.624,2022-12-01T02:18:18Z
2022-12-01T00:19:21Z,42.805,6.029,13.3017,4.60059,2470.624,2022-12-01T02:21:21Z
2022-12-01T00:22:24Z,42.805,6.029,13.3014,4.60060,2470.637,2022-12-01T02:24:24Z
2022-12-01T00:25:28Z,42.805,6.029,13.3011,4.60058,2470.624,2022-12-01T02:27:27Z
2022-12-01T00:28:31Z,42.805,6.029,13.3011,4.60058,2470.624,2022-12-01T02:30:30Z
2022-12-01T00:31:34Z,42.805,6.029,13.3011,4.60059,2470.614,2022-12-01T02:33:33Z
2022-12-01T00:34:37Z,42.805,6.029,13.3011,4.60059,2470.614,2022-12-01T02:36:36Z
2022-12-01T00:37:40Z,42.805,6.029,13.3014,4.60059,2470.6,2022-12-01T02:39:39Z
2022-12-01T00:40:43Z,42.805,6.029,13.3012,4.60058,2470.637,2022-12-01T02:42:42Z
2022-12-01T00:43:46Z,42.805,6.029,13.3009,4.60058,2470.624,2022-12-01T02:45:46Z
2022-12-01T00:46:49Z,42.805,6.029,13.3011,4.60058,2470.646,2022-12-01T02:48:49Z
2022-12-01T00:49:52Z,42.805,6.029,13.3014,4.60057,2470.637,2022-12-01T02:51:52Z
2022-12-01T00:52:55Z,42.805,6.029,13.3010,4.60059,2470.637,2022-12-01T02:54:55Z
2022-12-01T00:55:58Z,42.805,6.029,13.3010,4.60058,2470.637,2022-12-01T02:57:58Z
2022-12-01T00:59:01Z,42.805,6.029,13.3014,4.60058,2470.637,2022-12-01T03:01:01Z
2022-12-01T01:02:04Z,42.805,6.029,13.3009,4.60059,2470.624,2022-12-01T03:04:04Z
2022-12-01T01:05:07Z,42.805,6.029,13.3009,4.60059,2470.624,2022-12-01T03:07:07Z
2022-12-01T01:08:11Z,42.805,6.029,13.3012,4.60058,2470.646,2022-12-01T03:10:10Z
2022-12-01T01:11:14Z,42.805,6.029,13.3008,4.60059,2470.624,2022-12-01T03:13:13Z
2022-12-01T01:14:17Z,42.805,6.029,13.3014,4.60059,2470.624,2022-12-01T03:16:16Z
2022-12-01T01:17:20Z,42.805,6.029,13.3015,4.60058,2470.646,2022-12-01T03:19:19Z
2022-12-01T01:20:23Z,42.805,6.029,13.3014,4.60059,2470.67,2022-12-01T03:22:22Z
2022-12-01T01:23:26Z,42.805,6.029,13.3013,4.60057,2470.624,2022-12-01T03:25:25Z
2022-12-01T01:26:29Z,42.805,6.029,13.3015,4.60057,2470.637,2022-12-01T03:28:28Z
2022-12-01T01:29:32Z,42.805,6.029,13.3009,4.60059,2470.624,2022-12-01T03:31:32Z
2022-12-01T01:32:35Z,42.805,6.029,13.3011,4.60058,2470.6,2022-12-01T03:34:35Z
2022-12-01T01:35:38Z,42.805,6.029,13.3012,4.60061,2470.637,2022-12-01T03:37:38Z
2022-12-01T01:38:41Z,42.805,6.029,13.3009,4.60058,2470.6,2022-12-01T03:40:41Z
2022-12-01T01:41:44Z,42.805,6.029,13.3011,4.60057,2470.646,2022-12-01T03:43:44Z
2022-12-01T01:44:47Z,42.805,6.029,13.3014,4.60060,2470.6,2022-12-01T03:46:47Z
2022-12-01T01:47:50Z,42.805,6.029,13.3013,4.60057,2470.646,2022-12-01T03:49:50Z
2022-12-01T01:50:54Z,42.805,6.029,13.3013,4.60058,2470.624,2022-12-01T03:52:53Z
2022-12-01T01:53:57Z,42.805,6.029,13.3014,4.60058,2470.637,2022-12-01T03:55:56Z
2022-12-01T01:57:00Z,42.805,6.029,13.3014,4.60057,2470.661,2022-12-01T03:58:59Z
2022-12-01T02:00:03Z,42.805,6.029,13.3014,4.60060,2470.684,2022-12-01T04:02:02Z
2022-12-01T02:03:06Z,42.805,6.029,13.3014,4.60060,2470.624,2022-12-01T04:05:05Z
2022-12-01T02:06:09Z,42.805,6.029,13.3011,4.60058,2470.624,2022-12-01T04:08:08Z
2022-12-01T02:09:12Z,42.805,6.029,13.3011,4.60057,2470.624,2022-12-01T04:11:12Z
2022-12-01T02:12:15Z,42.805,6.029,13.3015,4.60058,2470.624,2022-12-01T04:14:15Z
2022-12-01T02:15:18Z,42.805,6.029,13.3009,4.60057,2470.6,2022-12-01T04:17:18Z
2022-12-01T02:18:21Z,42.805,6.029,13.3009,4.60057,2470.637,2022-12-01T04:20:21Z
2022-12-01T02:21:24Z,42.805,6.029,13.3014,4.60058,2470.6,2022-12-01T04:23:24Z
2022-12-01T02:24:27Z,42.805,6.029,13.3011,4.60058,2470.637,2022-12-01T04:26:27Z
2022-12-01T02:27:30Z,42.805,6.029,13.3012,4.60057,2470.624,2022-12-01T04:29:30Z
2022-12-01T02:30:33Z,42.805,6.029,13.3012,4.60057,2470.61,2022-12-01T04:32:33Z
2022-12-01T02:33:37Z,42.805,6.029,13.3014,4.60057,2470.637,2022-12-01T04:35:36Z
2022-12-01T02:36:40Z,42.805,6.029,13.3010,4.60057,2470.6,2022-12-01T04:38:39Z
2022-12-01T02:39:43Z,42.805,6.029,13.3012,4.60058,2470.646,2022-12-01T04:41:42Z
2022-12-01T02:42:46Z,42.805,6.029,13.3012,4.60058,2470.6,2022-12-01T04:44:45Z
2022-12-01T02:45:49Z,42.805,6.029,13.3011,4.60057,2470.624,2022-12-01T04:47:48Z
2022-12-01T02:48:52Z,42.805,6.029,13.3012,4.60058,2470.637,2022-12-01T04:50:52Z
2022-12-01T02:51:55Z,42.805,6.029,13.3014,4.60058,2470.624,2022-12-01T04:53:55Z
2022-12-01T02:54:58Z,42.805,6.029,13.3011,4.60059,2470.6,2022-12-01T04:56:58Z
2022-12-01T02:58:01Z,42.805,6.029,13.3011,4.60057,2470.637,2022-12-01T05:00:01Z
2022-12-01T03:01:04Z,42.805,6.029,13.3011,4.60058,2470.6,2022-12-01T05:03:04Z
2022-12-01T03:04:07Z,42.805,6.029,13.3012,4.60060,2470.6,2022-12-01T05:06:07Z
2022-12-01T03:07:10Z,42.805,6.029,13.3011,4.60057,2470.646,2022-12-01T05:09:10Z
2022-12-01T03:10:13Z,42.805,6.029,13.3012,4.60059,2470.637,2022-12-01T05:12:13Z
2022-12-01T03:13:16Z,42.805,6.029,13.3012,4.60057,2470.6,2022-12-01T05:15:16Z
2022-12-01T03:16:20Z,42.805,6.029,13.3014,4.60057,2470.614,2022-12-01T05:18:19Z
2022-12-01T03:19:23Z,42.805,6.029,13.3009,4.60059,2470.61,2022-12-01T05:21:22Z
2022-12-01T03:22:26Z,42.805,6.029,13.3009,4.60062,2470.624,2022-12-01T05:24:25Z
2022-12-01T03:25:29Z,42.805,6.029,13.3011,4.60057,2470.624,2022-12-01T05:27:28Z
2022-12-01T03:28:32Z,42.805,6.029,13.3011,4.60057,2470.6,2022-12-01T05:30:31Z
2022-12-01T03:31:35Z,42.805,6.029,13.3011,4.60057,2470.614,2022-12-01T05:33:34Z
2022-12-01T03:34:38Z,42.805,6.029,13.3011,4.60057,2470.6,2022-12-01T05:36:38Z
2022-12-01T03:37:41Z,42.805,6.029,13.3011,4.60057,2470.624,2022-12-01T05:39:41Z
2022-12-01T03:40:44Z,42.805,6.029,13.3011,4.60058,2470.637,2022-12-01T05:42:44Z
2022-12-01T03:43:47Z,42.805,6.029,13.3009,4.60058,2470.6,2022-12-01T05:45:47Z
2022-12-01T03:46:50Z,42.805,6.029,13.3009,4.60057,2470.6,2022-12-01T05:48:50Z
2022-12-01T03:49:53Z,42.805,6.029,13.3011,4.60057,2470.624,2022-12-01T05:51:53Z
2022-12-01T03:52:56Z,42.805,6.029,13.3008,4.60057,2470.624,2022-12-01T05:54:56Z
2022-12-01T03:55:59Z,42.805,6.029,13.3009,4.60057,2470.624,2022-12-01T05:57:59Z
2022-12-01T03:59:02Z,42.805,6.029,13.3010,4.60057,2470.646,2022-12-01T06:01:02Z
2022-12-01T04:02:06Z,42.805,6.029,13.3011,4.60057,2470.614,2022-12-01T06:04:05Z
2022-12-01T04:05:09Z,42.805,6.029,13.3013,4.60057,2470.624,2022-12-01T06:07:08Z
2022-12-01T04:08:12Z,42.805,6.029,13.3010,4.60057,2470.624,2022-12-01T06:10:11Z
2022-12-01T04:11:15Z,42.805,6.029,13.3013,4.60057,2470.624,2022-12-01T06:13:14Z
2022-12-01T04:14:18Z,42.805,6.029,13.3014,4.60057,2470.614,2022-12-01T06:16:17Z
2022-12-01T04:17:21Z,42.805,6.029,13.3014,4.60057,2470.6,2022-12-01T06:19:20Z
2022-12-01T04:20:24Z,42.805,6.029,13.3011,4.60057,2470.624,2022-12-01T06:22:24Z
2022-12-01T04:23:27Z,42.805,6.029,13.3011,4.60058,2470.637,2022-12-01T06:25:27Z
2022-12-01T04:26:30Z,42.805,6.029,13.3009,4.60057,2470.6,2022-12-01T06:28:30Z
2022-12-01T04:29:33Z,42.805,6.029,13.3011,4.60057,2470.577,2022-12-01T06:31:33Z
2022-12-01T04:32:36Z,42.805,6.029,13.3012,4.60057,2470.624,2022-12-01T06:34:36Z
2022-12-01T04:35:39Z,42.805,6.029,13.3011,4.60057,2470.624,2022-12-01T06:37:39Z
2022-12-01T04:38:42Z,42.805,6.029,13.3009,4.60056,2470.637,2022-12-01T06:40:42Z
2022-12-01T04:41:45Z,42.805,6.029,13.3008,4.60056,2470.6,2022-12-01T06:43:45Z
2022-12-01T04:44:49Z,42.805,6.029,13.3010,4.60057,2470.624,2022-12-01T06:46:48Z
2022-12-01T04:47:52Z,42.805,6.029,13.3008,4.60056,2470.661,2022-12-01T06:49:51Z
2022-12-01T04:50:55Z,42.805,6.029,13.3014,4.60056,2470.6,2022-12-01T06:52:54Z
2022-12-01T04:53:58Z,42.805,6.029,13.3014,4.60058,2470.614,2022-12-01T06:55:57Z
2022-12-01T04:57:01Z,42.805,6.029,13.3012,4.60057,2470.646,2022-12-01T06:59:00Z
2022-12-01T05:00:04Z,42.805,6.029,13.3009,4.60057,2470.646,2022-12-01T07:02:03Z
2022-12-01T05:03:07Z,42.805,6.029,13.3009,4.60055,2470.624,2022-12-01T07:05:07Z
2022-12-01T05:06:10Z,42.805,6.029,13.3011,4.60057,2470.614,2022-12-01T07:08:10Z
2022-12-01T05:09:13Z,42.805,6.029,13.3010,4.60056,2470.614,2022-12-01T07:11:13Z
2022-12-01T05:12:16Z,42.805,6.029,13.3009,4.60057,2470.6,2022-12-01T07:14:16Z
2022-12-01T05:15:19Z,42.805,6.029,13.3008,4.60057,2470.624,2022-12-01T07:17:19Z
2022-12-01T05:18:22Z,42.805,6.029,13.3011,4.60059,2470.6,2022-12-01T07:20:22Z
2022-12-01T05:21:25Z,42.805,6.029,13.3014,4.60057,2470.6,2022-12-01T07:23:25Z
2022-12-01T05:24:28Z,42.805,6.029,13.3011,4.60058,2470.624,2022-12-01T07:26:28Z
2022-12-01T05:27:32Z,42.805,6.029,13.3009,4.60056,2470.6,2022-12-01T07:29:31Z
2022-12-01T05:30:35Z,42.805,6.029,13.3010,4.60057,2470.6,2022-12-01T07:32:34Z
2022-12-01T05:33:38Z,42.805,6.029,13.3008,4.60057,2470.614,2022-12-01T07:35:37Z
2022-12-01T05:36:41Z,42.805,6.029,13.3009,4.60057,2470.614,2022-12-01T07:38:40Z
2022-12-01T05:39:44Z,42.805,6.029,13.3011,4.60056,2470.6,2022-12-01T07:41:43Z
2022-12-01T05:42:47Z,42.805,6.029,13.3014,4.60057,2470.577,2022-12-01T07:44:46Z
2022-12-01T05:45:50Z,42.805,6.029,13.3011,4.60057,2470.624,2022-12-01T07:47:50Z
2022-12-01T05:48:53Z,42.805,6.029,13.3006,4.60057,2470.591,2022-12-01T07:50:53Z
2022-12-01T05:51:56Z,42.805,6.029,13.3009,4.60057,2470.614,2022-12-01T07:53:56Z
2022-12-01T05:54:59Z,42.805,6.029,13.3011,4.60057,2470.614,2022-12-01T07:56:59Z
2022-12-01T05:58:02Z,42.805,6.029,13.3009,4.60057,2470.6,2022-12-01T08:00:02Z
2022-12-01T06:01:05Z,42.805,6.029,13.3013,4.60057,2470.614,2022-12-01T08:03:05Z
2022-12-01T06:04:08Z,42.805,6.029,13.3009,4.60056,2470.6,2022-12-01T08:06:08Z
2022-12-01T06:07:11Z,42.805,6.029,13.3013,4.60058,2470.577,2022-12-01T08:09:11Z
2022-12-01T06:10:15Z,42.805,6.029,13.3009,4.60056,2470.591,2022-12-01T08:12:14Z
2022-12-01T06:13:18Z,42.805,6.029,13.3014,4.60058,2470.553,2022-12-01T08:15:17Z
2022-12-01T06:16:21Z,42.805,6.029,13.3013,4.60057,2470.6,2022-12-01T08:18:20Z
2022-12-01T06:19:24Z,42.805,6.029,13.3011,4.60057,2470.624,2022-12-01T08:21:23Z
2022-12-01T06:22:27Z,42.805,6.029,13.3011,4.60057,2470.591,2022-12-01T08:24:26Z
2022-12-01T06:25:30Z,42.805,6.029,13.3012,4.60057,2470.553,2022-12-01T08:27:29Z
2022-12-01T06:28:33Z,42.805,6.029,13.3011,4.60057,2470.6,2022-12-01T08:30:33Z
2022-12-01T06:31:36Z,42.805,6.029,13.3014,4.60057,2470.591,2022-12-01T08:33:36Z
2022-12-01T06:34:39Z,42.805,6.029,13.3010,4.60057,2470.553,2022-12-01T08:36:39Z
2022-12-01T06:37:42Z,42.805,6.029,13.3009,4.60056,2470.6,2022-12-01T08:39:42Z
2022-12-01T06:40:45Z,42.805,6.029,13.3011,4.60056,2470.553,2022-12-01T08:42:45Z
2022-12-01T06:43:48Z,42.805,6.029,13.3011,4.60056,2470.577,2022-12-01T08:45:48Z
2022-12-01T06:46:51Z,42.805,6.029,13.3011,4.60056,2470.577,2022-12-01T08:48:51Z
2022-12-01T06:49:54Z,42.805,6.029,13.3009,4.60056,2470.591,2022-12-01T08:51:54Z
2022-12-01T06:52:58Z,42.805,6.029,13.3009,4.60057,2470.553,2022-12-01T08:54:57Z
2022-12-01T06:56:01Z,42.805,6.029,13.3011,4.60057,2470.567,2022-12-01T08:58:00Z
2022-12-01T06:59:04Z,42.805,6.029,13.3007,4.60057,2470.614,2022-12-01T09:01:03Z
2022-12-01T07:02:07Z,42.805,6.029,13.3011,4.60056,2470.553,2022-12-01T09:04:06Z
2022-12-01T07:05:10Z,42.805,6.029,13.3015,4.60059,2470.577,2022-12-01T09:07:09Z
2022-12-01T07:08:13Z,42.805,6.029,13.3008,4.60057,2470.567,2022-12-01T09:10:12Z
2022-12-01T07:11:16Z,42.805,6.029,13.3011,4.60056,2470.577,2022-12-01T09:13:16Z
2022-12-01T07:14:19Z,42.805,6.029,13.3009,4.60057,2470.577,2022-12-01T09:16:19Z
2022-12-01T07:17:22Z,42.805,6.029,13.3009,4.60057,2470.577,2022-12-01T09:19:22Z
2022-12-01T07:20:25Z,42.805,6.029,13.3009,4.60057,2470.567,2022-12-01T09:22:25Z
2022-12-01T07:23:28Z,42.805,6.029,13.3006,4.60057,2470.553,2022-12-01T09:25:28Z
2022-12-01T07:26:31Z,42.805,6.029,13.3010,4.60057,2470.614,2022-12-01T09:28:31Z
2022-12-01T07:29:34Z,42.805,6.029,13.3013,4.60057,2470.591,2022-12-01T09:31:34Z
2022-12-01T07:32:37Z,42.805,6.029,13.3009,4.60057,2470.553,2022-12-01T09:34:37Z
2022-12-01T07:35:41Z,42.805,6.029,13.3006,4.60056,2470.577,2022-12-01T09:37:40Z
2022-12-01T07:38:44Z,42.805,6.029,13.3011,4.60056,2470.567,2022-12-01T09:40:43Z
2022-12-01T07:41:47Z,42.805,6.029,13.3006,4.60056,2470.53,2022-12-01T09:43:46Z
2022-12-01T07:44:50Z,42.805,6.029,13.3009,4.60057,2470.553,2022-12-01T09:46:49Z
2022-12-01T07:47:53Z,42.805,6.029,13.3013,4.60056,2470.591,2022-12-01T09:49:52Z
2022-12-01T07:50:56Z,42.805,6.029,13.3013,4.60057,2470.577,2022-12-01T09:52:56Z
2022-12-01T07:53:59Z,42.805,6.029,13.3011,4.60058,2470.591,2022-12-01T09:55:59Z
2022-12-01T07:57:02Z,42.805,6.029,13.3014,4.60056,2470.591,2022-12-01T09:59:02Z
2022-12-01T08:00:05Z,42.805,6.029,13.3013,4.60057,2470.6,2022-12-01T10:02:05Z
2022-12-01T08:03:08Z,42.805,6.029,13.3008,4.60057,2470.577,2022-12-01T10:05:08Z
2022-12-01T08:06:11Z,42.805,6.029,13.3009,4.60057,2470.614,2022-12-01T10:08:11Z
2022-12-01T08:09:14Z,42.805,6.029,13.3009,4.60056,2470.553,2022-12-01T10:11:14Z
2022-12-01T08:12:17Z,42.805,6.029,13.3010,4.60056,2470.591,2022-12-01T10:14:17Z
2022-12-01T08:15:20Z,42.805,6.029,13.3012,4.60057,2470.553,2022-12-01T10:17:20Z
2022-12-01T08:18:24Z,42.805,6.029,13.3011,4.60056,2470.6,2022-12-01T10:20:23Z
2022-12-01T08:21:27Z,42.805,6.029,13.3012,4.60057,2470.614,2022-12-01T10:23:26Z
2022-12-01T08:24:30Z,42.805,6.029,13.3009,4.60057,2470.591,2022-12-01T10:26:29Z
2022-12-01T08:27:33Z,42.805,6.029,13.3006,4.60057,2470.577,2022-12-01T10:29:32Z
2022-12-01T08:30:36Z,42.805,6.029,13.3009,4.60057,2470.577,2022-12-01T10:32:35Z
2022-12-01T08:33:39Z,42.805,6.029,13.3011,4.60057,2470.6,2022-12-01T10:35:38Z
2022-12-01T08:36:42Z,42.805,6.029,13.3010,4.60057,2470.591,2022-12-01T10:38:42Z
2022-12-01T08:39:45Z,42.805,6.029,13.3007,4.60057,2470.6,2022-12-01T10:41:45Z
2022-12-01T08:42:48Z,42.805,6.029,13.3010,4.60057,2470.6,2022-12-01T10:44:48Z
2022-12-01T08:45:51Z,42.805,6.029,13.3012,4.60057,2470.637,2022-12-01T10:47:51Z
2022-12-01T08:48:54Z,42.805,6.029,13.3012,4.60057,2470.637,2022-12-01T10:50:54Z
2022-12-01T08:51:57Z,42.805,6.029,13.3014,4.60057,2470.6,2022-12-01T10:53:57Z
2022-12-01T08:55:00Z,42.805,6.029,13.3008,4.60057,2470.6,2022-12-01T10:57:00Z
2022-12-01T08:58:03Z,42.805,6.029,13.3011,4.60059,2470.6,2022-12-01T11:00:03Z
2022-12-01T09:01:07Z,42.805,6.029,13.3009,4.60057,2470.637,2022-12-01T11:03:06Z
2022-12-01T09:04:10Z,42.805,6.029,13.3011,4.60057,2470.614,2022-12-01T11:06:09Z
2022-12-01T09:07:13Z,42.805,6.029,13.3011,4.60057,2470.6,2022-12-01T11:09:12Z
2022-12-01T09:10:16Z,42.805,6.029,13.3013,4.60057,2470.614,2022-12-01T11:12:15Z
2022-12-01T09:13:19Z,42.805,6.029,13.3015,4.60057,2470.6,2022-12-01T11:15:18Z
2022-12-01T09:16:22Z,42.805,6.029,13.3014,4.60059,2470.553,2022-12-01T11:18:22Z
2022-12-01T09:19:25Z,42.805,6.029,13.3014,4.60057,2470.6,2022-12-01T11:21:25Z
2022-12-01T09:22:28Z,42.805,6.029,13.3011,4.60057,2470.6,2022-12-01T11:24:28Z
2022-12-01T09:25:31Z,42.805,6.029,13.3013,4.60057,2470.6,2022-12-01T11:27:31Z
2022-12-01T09:28:34Z,42.805,6.029,13.3009,4.60057,2470.6,2022-12-01T11:30:34Z
2022-12-01T09:31:37Z,42.805,6.029,13.3014,4.60057,2470.637,2022-12-01T11:33:37Z
2022-12-01T09:34:40Z,42.805,6.029,13.3014,4.60058,2470.646,2022-12-01T11:36:40Z
2022-12-01T09:37:43Z,42.805,6.029,13.3010,4.60058,2470.577,2022-12-01T11:39:43Z
2022-12-01T09:40:47Z,42.805,6.029,13.3010,4.60059,2470.646,2022-12-01T11:42:46Z
2022-12-01T09:43:50Z,42.805,6.029,13.3009,4.60058,2470.624,2022-12-01T11:45:49Z
2022-12-01T09:46:53Z,42.805,6.029,13.3013,4.60057,2470.614,2022-12-01T11:48:52Z
2022-12-01T09:49:56Z,42.805,6.029,13.3013,4.60058,2470.624,2022-12-01T11:51:55Z
2022-12-01T09:52:59Z,42.805,6.029,13.3010,4.60059,2470.646,2022-12-01T11:54:58Z
2022-12-01T09:56:02Z,42.805,6.029,13.3009,4.60057,2470.6,2022-12-01T11:58:02Z
2022-12-01T09:59:05Z,42.805,6.029,13.3010,4.60059,2470.624,2022-12-01T12:01:05Z
2022-12-01T10:02:08Z,42.805,6.029,13.3009,4.60057,2470.637,2022-12-01T12:04:08Z
2022-12-01T10:05:11Z,42.805,6.029,13.3011,4.60057,2470.624,2022-12-01T12:07:11Z
2022-12-01T10:08:14Z,42.805,6.029,13.3011,4.60059,2470.624,2022-12-01T12:10:14Z
2022-12-01T10:11:17Z,42.805,6.029,13.3009,4.60057,2470.637,2022-12-01T12:13:17Z
2022-12-01T10:14:20Z,42.805,6.029,13.3013,4.60058,2470.624,2022-12-01T12:16:20Z
2022-12-01T10:17:23Z,42.805,6.029,13.3014,4.60059,2470.624,2022-12-01T12:19:23Z
2022-12-01T10:20:26Z,42.805,6.029,13.3010,4.60058,2470.67,2022-12-01T12:22:26Z
2022-12-01T10:23:30Z,42.805,6.029,13.3013,4.60058,2470.637,2022-12-01T12:25:29Z
2022-12-01T10:26:33Z,42.805,6.029,13.3013,4.60058,2470.646,2022-12-01T12:28:32Z
2022-12-01T10:29:36Z,42.805,6.029,13.3014,4.60058,2470.624,2022-12-01T12:31:35Z
2022-12-01T10:32:39Z,42.805,6.029,13.3015,4.60058,2470.661,2022-12-01T12:34:38Z
2022-12-01T10:35:42Z,42.805,6.029,13.3013,4.60058,2470.67,2022-12-01T12:37:41Z
2022-12-01T10:38:45Z,42.805,6.029,13.3012,4.60058,2470.646,2022-12-01T12:40:45Z
2022-12-01T10:41:48Z,42.805,6.029,13.3014,4.60059,2470.684,2022-12-01T12:43:48Z
2022-12-01T10:44:51Z,42.805,6.029,13.3012,4.60059,2470.67,2022-12-01T12:46:51Z
2022-12-01T10:47:54Z,42.805,6.029,13.3013,4.60059,2470.684,2022-12-01T12:49:54Z
2022-12-01T10:50:57Z,42.805,6.029,13.3017,4.60062,2470.693,2022-12-01T12:52:57Z
2022-12-01T10:54:00Z,42.805,6.029,13.3008,4.60059,2470.661,2022-12-01T12:56:00Z
2022-12-01T10:57:03Z,42.805,6.029,13.3014,4.60059,2470.684,2022-12-01T12:59:03Z
2022-12-01T11:00:06Z,42.805,6.029,13.3014,4.60059,2470.693,2022-12-01T13:02:06Z
2022-12-01T11:03:09Z,42.805,6.029,13.3011,4.60058,2470.67,2022-12-01T13:05:09Z
2022-12-01T11:06:13Z,42.805,6.029,13.3020,4.60073,2470.661,2022-12-01T13:08:12Z
2022-12-01T11:09:16Z,42.805,6.029,13.3013,4.60058,2470.684,2022-12-01T13:11:15Z
2022-12-01T11:12:19Z,42.805,6.029,13.3011,4.60061,2470.684,2022-12-01T13:14:18Z
2022-12-01T11:15:22Z,42.805,6.029,13.3012,4.60059,2470.67,2022-12-01T13:17:21Z
2022-12-01T11:18:25Z,42.805,6.029,13.3014,4.60059,2470.67,2022-12-01T13:20:25Z
2022-12-01T11:21:28Z,42.805,6.029,13.3015,4.60059,2470.693,2022-12-01T13:23:28Z
2022-12-01T11:24:31Z,42.805,6.029,13.3012,4.60059,2470.684,2022-12-01T13:26:31Z
2022-12-01T11:27:34Z,42.805,6.029,13.3011,4.60059,2470.67,2022-12-01T13:29:34Z
2022-12-01T11:30:37Z,42.805,6.029,13.3012,4.60060,2470.646,2022-12-01T13:32:37Z
2022-12-01T11:33:40Z,42.805,6.029,13.3010,4.60059,2470.67,2022-12-01T13:35:40Z
2022-12-01T11:36:43Z,42.805,6.029,13.3016,4.60059,2470.707,2022-12-01T13:38:43Z
2022-12-01T11:39:46Z,42.805,6.029,13.3018,4.60064,2470.693,2022-12-01T13:41:46Z
2022-12-01T11:42:50Z,42.805,6.029,13.3024,4.60073,2470.661,2022-12-01T13:44:49Z
2022-12-01T11:45:53Z,42.805,6.029,13.3016,4.60062,2470.684,2022-12-01T13:47:52Z
2022-12-01T11:48:56Z,42.805,6.029,13.3010,4.60060,2470.73,2022-12-01T13:50:55Z
2022-12-01T11:51:59Z,42.805,6.029,13.3014,4.60059,2470.74,2022-12-01T13:53:58Z
2022-12-01T11:55:02Z,42.805,6.029,13.3011,4.60059,2470.717,2022-12-01T13:57:01Z
2022-12-01T11:58:05Z,42.805,6.029,13.3022,4.60075,2470.717,2022-12-01T14:00:04Z
2022-12-01T12:01:08Z,42.805,6.029,13.3014,4.60062,2470.707,2022-12-01T14:03:08Z
2022-12-01T12:04:11Z,42.805,6.029,13.3014,4.60060,2470.74,2022-12-01T14:06:11Z
2022-12-01T12:07:14Z,42.805,6.029,13.3014,4.60060,2470.707,2022-12-01T14:09:14Z
2022-12-01T12:10:17Z,42.805,6.029,13.3022,4.60072,2470.707,2022-12-01T14:12:17Z
2022-12-01T12:13:20Z,42.805,6.029,13.3020,4.60069,2470.717,2022-12-01T14:15:20Z
2022-12-01T12:16:23Z,42.805,6.029,13.3013,4.60062,2470.717,2022-12-01T14:18:23Z
2022-12-01T12:19:26Z,42.805,6.029,13.3011,4.60060,2470.73,2022-12-01T14:21:26Z
2022-12-01T12:22:29Z,42.805,6.029,13.3018,4.60068,2470.73,2022-12-01T14:24:29Z
2022-12-01T12:25:33Z,42.805,6.029,13.3011,4.60061,2470.707,2022-12-01T14:27:32Z
2022-12-01T12:28:36Z,42.805,6.029,13.3019,4.60064,2470.754,2022-12-01T14:30:35Z
2022-12-01T12:31:39Z,42.805,6.029,13.3018,4.60067,2470.717,2022-12-01T14:33:38Z
2022-12-01T12:34:42Z,42.805,6.029,13.3022,4.60069,2470.717,2022-12-01T14:36:41Z
2022-12-01T12:37:45Z,42.805,6.029,13.3014,4.60061,2470.74,2022-12-01T14:39:44Z
2022-12-01T12:40:48Z,42.805,6.029,13.3018,4.60060,2470.754,2022-12-01T14:42:48Z
2022-12-01T12:43:51Z,42.805,6.029,13.3011,4.60060,2470.707,2022-12-01T14:45:51Z
2022-12-01T12:46:54Z,42.805,6.029,13.3009,4.60059,2470.67,2022-12-01T14:48:54Z
2022-12-01T12:49:57Z,42.805,6.029,13.3014,4.60059,2470.717,2022-12-01T14:51:57Z
2022-12-01T12:53:00Z,42.805,6.029,13.3011,4.60059,2470.717,2022-12-01T14:55:00Z
2022-12-01T12:56:03Z,42.805,6.029,13.3013,4.60061,2470.74,2022-12-01T14:58:03Z
2022-12-01T12:59:06Z,42.805,6.029,13.3013,4.60059,2470.74,2022-12-01T15:01:06Z
2022-12-01T13:02:09Z,42.805,6.029,13.3015,4.60059,2470.693,2022-12-01T15:04:09Z
2022-12-01T13:05:12Z,42.805,6.029,13.3014,4.60061,2470.74,2022-12-01T15:07:12Z
2022-12-01T13:08:16Z,42.805,6.029,13.3021,4.60064,2470.73,2022-12-01T15:10:15Z
2022-12-01T13:11:19Z,42.805,6.029,13.3024,4.60074,2470.73,2022-12-01T15:13:18Z
2022-12-01T13:14:22Z,42.805,6.029,13.3016,4.60068,2470.693,2022-12-01T15:16:21Z
2022-12-01T13:17:25Z,42.805,6.029,13.3021,4.60075,2470.717,2022-12-01T15:19:24Z
2022-12-01T13:20:28Z,42.805,6.029,13.3013,4.60060,2470.73,2022-12-01T15:22:28Z
2022-12-01T13:23:31Z,42.805,6.029,13.3011,4.60063,2470.693,2022-12-01T15:25:31Z
2022-12-01T13:26:34Z,42.805,6.029,13.3011,4.60058,2470.717,2022-12-01T15:28:34Z
2022-12-01T13:29:37Z,42.805,6.029,13.3015,4.60062,2470.707,2022-12-01T15:31:37Z
2022-12-01T13:32:40Z,42.805,6.029,13.3022,4.60074,2470.693,2022-12-01T15:34:40Z
2022-12-01T13:35:43Z,42.805,6.029,13.3014,4.60062,2470.74,2022-12-01T15:37:43Z
2022-12-01T13:38:46Z,42.805,6.029,13.3011,4.60058,2470.74,2022-12-01T15:40:46Z
2022-12-01T13:41:49Z,42.805,6.029,13.3012,4.60059,2470.717,2022-12-01T15:43:49Z
2022-12-01T13:44:52Z,42.805,6.029,13.3015,4.60061,2470.717,2022-12-01T15:46:52Z
2022-12-01T13:47:56Z,42.805,6.029,13.3017,4.60066,2470.717,2022-12-01T15:49:55Z
2022-12-01T13:50:59Z,42.805,6.029,13.3026,4.60074,2470.73,2022-12-01T15:52:58Z
2022-12-01T13:54:02Z,42.805,6.029,13.3012,4.60059,2470.73,2022-12-01T15:56:01Z
2022-12-01T13:57:05Z,42.805,6.029,13.3011,4.60059,2470.754,2022-12-01T15:59:04Z
2022-12-01T14:00:08Z,42.805,6.029,13.3008,4.60060,2470.74,2022-12-01T16:02:07Z
2022-12-01T14:03:11Z,42.805,6.029,13.3013,4.60059,2470.717,2022-12-01T16:05:11Z
2022-12-01T14:06:14Z,42.805,6.029,13.3010,4.60060,2470.74,2022-12-01T16:08:14Z
2022-12-01T14:09:17Z,42.805,6.029,13.3013,4.60061,2470.74,2022-12-01T16:11:17Z
2022-12-01T14:12:20Z,42.805,6.029,13.3014,4.60059,2470.74,2022-12-01T16:14:20Z
2022-12-01T14:15:23Z,42.805,6.029,13.3014,4.60058,2470.74,2022-12-01T16:17:23Z
2022-12-01T14:18:26Z,42.805,6.029,13.3017,4.60062,2470.73,2022-12-01T16:20:26Z
2022-12-01T14:21:29Z,42.805,6.029,13.3016,4.60067,2470.717,2022-12-01T16:23:29Z
2022-12-01T14:24:32Z,42.805,6.029,13.3009,4.60059,2470.717,2022-12-01T16:26:32Z
2022-12-01T14:27:36Z,42.805,6.029,13.3015,4.60062,2470.717,2022-12-01T16:29:35Z
2022-12-01T14:30:39Z,42.805,6.029,13.3022,4.60067,2470.74,2022-12-01T16:32:38Z
2022-12-01T14:33:42Z,42.805,6.029,13.3020,4.60075,2470.74,2022-12-01T16:35:41Z
2022-12-01T14:36:45Z,42.805,6.029,13.3013,4.60059,2470.717,2022-12-01T16:38:44Z
2022-12-01T14:39:48Z,42.805,6.029,13.3016,4.60059,2470.717,2022-12-01T16:41:47Z
2022-12-01T14:42:51Z,42.805,6.029,13.3011,4.60067,2470.693,2022-12-01T16:44:50Z
2022-12-01T14:45:54Z,42.805,6.029,13.3017,4.60072,2470.74,2022-12-01T16:47:54Z
2022-12-01T14:48:57Z,42.805,6.029,13.3011,4.60059,2470.717,2022-12-01T16:50:57Z
2022-12-01T14:52:00Z,42.805,6.029,13.3013,4.60062,2470.74,2022-12-01T16:54:00Z
2022-12-01T14:55:03Z,42.805,6.029,13.3014,4.60060,2470.73,2022-12-01T16:57:03Z
2022-12-01T14:58:06Z,42.805,6.029,13.3011,4.60058,2470.73,2022-12-01T17:00:06Z
2022-12-01T15:01:09Z,42.805,6.029,13.3011,4.60059,2470.717,2022-12-01T17:03:09Z